Hourly Data Report for September 14, 2017

All times are specified in Local Standard Time (LST). Add 1 hour to adjust for Daylight Saving Time where and when it is observed.

KOUCHIBOUGUAC CS
NEW BRUNSWICK

46°47'00.000" N
65°01'00.000" W
21.00 m
8102328
71670
AKC

Download Data

Hourly Data (September 2017)
Hourly Data Report for September 14, 2017
Temp Definition
°C
Dew Point Temp Definition
°C
Rel Hum Definition
%
Wind Dir Definition
10's deg

Wind Spd Definition
km/h
Visibility Definition
km
Stn Press Definition
kPa
Hmdx Definition


Wind Chill Definition


Weather Definition


TIME
00:00 18.2 11.2 64 22 9   100.34     LegendNANA
01:00 16.6 11.3 71 22 5   100.34     LegendNANA
02:00 16.7 11.4 71 22 7   100.35     LegendNANA
03:00 16.3 11.5 74 22 6   100.37     LegendNANA
04:00 15.6 11.5 77 22 6   100.37     LegendNANA
05:00 15.1 11.6 80 22 7   100.41     LegendNANA
06:00 14.8 11.7 82 22 8   100.48     LegendNANA
07:00 15.0 12.0 82 22 6   100.54     LegendNANA
08:00 17.0 12.8 76 23 6   100.57     LegendNANA
09:00 19.9 14.1 69 23 5   100.61     LegendNANA
10:00 22.3 14.9 63 27 5   100.62 26   LegendNANA
11:00 23.9 14.9 57 27 5   100.61 28   LegendNANA
12:00 25.4 14.8 52 27 7   100.57 29   LegendNANA
13:00 26.3 14.9 49 30 5   100.56 30   LegendNANA
14:00 27.2 15.0 47 27 7   100.52 31   LegendNANA
15:00 27.6 15.4 47 27 8   100.52 32   LegendNANA
16:00 27.4 16.2 51 26 4   100.53 32   LegendNANA
17:00 26.9 15.3 49 26 4   100.56 31   LegendNANA
18:00 23.9 16.7 64 27 3   100.64 29   LegendNANA
19:00 20.7 16.3 76 1 9   100.78 26   LegendNANA
20:00 18.5 14.5 78 2 5   100.91     LegendNANA
21:00 15.4 13.8 90   0   100.98     LegendNANA
22:00 14.1 13.4 96   0   101.04     LegendNANA
23:00 13.3 12.9 97   0   101.09     LegendNANA

Notes on Data Quality.

Legend

  • E = Estimated
  • M = Missing
  • NA = Not Available
  • ‡ = Partner data that is not subject to review by the National Climate Archives
Date modified: